Regional Weather Roundup
Issued by NWS Newport/Morehead, NC

Current Version | Previous Version | Graphics & Text | Print | Product List | Glossary Off
Versions: 1 2 3 4 5 6 7 8 9 10 11 12 13 14 15 16 17 18 19 20 21 22 23 24 25 26 27 28 29 30 31 32 33 34 35 36 37 38 39 40 41 42 43 44 45 46 47 48 49 50

000
ASUS42 KMHX 050324
RWRMHX
WEATHER ROUNDUP FOR EASTERN NORTH CAROLINA
NATIONAL WEATHER SERVICE NEWPORT/MOREHEAD CITY NC
1000 PM EST SUN DEC 04 2016

NOTE: "FAIR" INDICATES FEW OR NO CLOUDS BELOW 12,000 FEET
WITH NO SIGNIFICANT WEATHER AND/OR OBSTRUCTIONS TO VISIBILITY

NCZ015>017-031-032-045>047-102-103-050400-
NORTH COAST

CITY           SKY/WX    TMP DP  RH WIND       PRES   REMARKS
EDENTON        DRIZZLE   47  43  85 CALM      30.14F
ELIZABETH CITY LGT RAIN  46  41  82 E7        30.16F
KITTY HAWK     DRIZZLE   48  43  81 E3        30.14F
MANTEO         DRIZZLE   48  41  78 E3        30.15F

$$

NCZ045>047-081-094-103-104-050400-
CENTRAL COAST

CITY           SKY/WX    TMP DP  RH WIND       PRES   REMARKS
FRISCO         LGT RAIN  49  44  83 NE6       30.15F

$$

NCZ095-097-098-100-101-050400-
SOUTHERN COAST

CITY           SKY/WX    TMP DP  RH WIND       PRES   REMARKS
BEAUFORT       LGT RAIN  50  49  96 E7        30.12F
CEDAR ISLAND   NOT AVBL
JACKSONVILLE   LGT RAIN  47  45  93 E7        30.10F
PINEY ISLAND   LGT RAIN N/A N/A N/A E10       30.12F
WILMINGTON     LGT RAIN  47  47 100 CALM      30.10F


$$

NCZ011>013-027>030-043-044-078>080-089-090>093-098-050400-
COASTAL PLAIN

CITY           SKY/WX    TMP DP  RH WIND       PRES   REMARKS
AHOSKIE        RAIN      42  41  96 CALM      30.13F
CLINTON        LGT RAIN  45  45 100 E5        30.11F
ELIZABETHTOWN  RAIN      44  44 100 E3        30.09F
GOLDSBORO      MIX PCPN  45  45 100 E5        30.09F
GREENVILLE     RAIN      45  45 100 E3        30.14F
HAVELOCK       LGT RAIN  47  44  90 E6        30.13F
KENANSVILLE    LGT RAIN  45  43  93 E6        30.11F FOG
KINSTON        CLOUDY    45  43  93 E3        30.13F
NEW BERN       RAIN      47  44  90 E7        30.13F
RICHLANDS      LGT RAIN  45  44  97 E5        30.12F
ROCKY MOUNT    LGT RAIN  43  43 100 CALM      30.12F
WASHINGTON     LGT RAIN  44  43  95 E5        30.13F
WHITEVILLE     LGT RAIN  46  45  94 NE3       30.08F

$$

AMZ130-135-150-152-154-156-158-170-250-252-270-ANZ085-086-088-633-658-670-050400-
MARINE OBSERVATIONS

STATION/POSITION TIME  TEMP    WIND        PRES    WAVE   SWELL
                       AIR SEA DIR/SP/G            HT/PER HT/PER
                 (UTC) (F)     (DEG/KT/KT) (MB)    (FT/S) (FT/S)
CHESAPEAKE LIGHT NOT AVBL
64 E VA BEACH    0250   51 59   90/  4/  8 1021.3    3/ 7   3/ 7
DUCK             0300   49 55  120/  8/ 10 1020.6
2 E DUCK         NOT AVBL
OREGON INLET     0300   51 55   60/  6/  8 1020.7
13E OREGON INLT  NOT AVBL
HATTERAS CG      0300   51 58   50/  4/  5 1020.4
DIAMOND BUOY     0250   60 74  120/  4/  8 1020.8    3/ 8   3/ 8
CAPE LOOKOUT     0300   57     100/ 14/ 17 1019.4
BEAUFORT LAB     0300   49 54   50/  4/  8 1018.6
30 SE NEW RVR IN 0308   62 75   90/ 16/ 21 1018.9
30 SE NEW RVR IN NOT AVBL
27 SE WRIGHTSVLE 0308   65 68  140/ 17/ 25 1018.1
5 SE WRIGHTSVLE  0308   56 63  100/ 14/ 23 1018.3
225 S CAPE HAT   0250   67 73  140/  8/ 12 1021.7    4/ 8   3/ 8
41 SE CHARLESTON 0250   72 75  160/ 21/ 25 1016.9    4/ 4   2/ 8

$$




USA.gov is the U.S. government's official web portal to all federal, state and local government web resources and services.